Lapse_Rate
5.8 6.5 6.5 6.5 6.5 6.5 6.5 6.5 6.5 6.5 6.5 6.5 6.5 6.5 6.5 6.3 5.7 5.1 4.5 3.4 3.0 2.4 1.3 0.7 0.1 -0.9 -1.6 -1.7 -2.0 -2.1 -2.4 -2.6 -2.5 -2.8 -2.8 -3.3 -4.3 -4.5 -4.0 -3.3 -3.3 -3.6 -3.7 -3.5
6.5 6.5 6.5 6.5 6.5 6.5 6.5 6.5 6.5 6.5 6.5 6.5 6.5 6.5 6.5 6.5 6.4 6.0 5.6 5.0 3.7 2.3 2.1 1.6 -0.0 -0.9 -0.5 -1.9 -2.0 -2.4 -2.7 -3.1 -3.3 -3.8 -4.5 -4.3 -4.3 -4.2 -3.8 -3.3 -3.5 -3.5 -3.3 -2.7
6.5 6.5 6.5 6.5 6.5 6.5 6.5 6.5 6.5 6.5 6.5 6.5 6.5 6.5 6.5 6.5 6.1 5.6 5.2 5.7 5.2 3.2 2.7 2.3 1.1 -0.3 -1.6 -1.9 -2.8 -2.6 -3.3 -3.6 -3.9 -4.0 -4.5 -4.4 -4.0 -3.5 -3.9 -4.2 -4.3 -4.0 -3.3 -2.8
6.5 6.4 6.5 6.5 6.5 6.5 6.5 6.5 6.5 6.5 6.5 6.5 6.5 6.5 6.5 6.5 6.5 6.5 6.0 5.0 5.0 3.9 3.5 2.4 1.5 -0.1 -1.1 -2.0 -2.6 -2.8 -3.6 -4.5 -4.3 -4.4 -4.3 -4.1 -4.3 -4.1 -4.6 -4.8 -5.0 -4.6 -3.6 -2.8
6.5 6.5 6.5 6.5 6.5 6.5 6.5 6.5 6.5 6.5 6.5 6.5 6.5 6.5 6.5 6.5 6.5 6.5 6.4 5.6 4.5 4.0 3.4 2.1 1.1 0.1 -1.3 -2.4 -3.2 -3.6 -4.3 -4.5 -4.3 -4.4 -4.7 -5.3 -5.0 -5.0 -4.9 -5.0 -5.0 -4.8 -3.4 -2.5
6.5 6.1 6.5 6.5 6.5 6.5 6.5 6.5 6.5 6.5 6.5 6.5 6.5 6.5 6.5 6.5 6.5 6.5 6.4 6.2 5.7 5.0 4.3 2.3 0.8 0.4 -1.3 -2.6 -3.3 -4.1 -4.4 -4.6 -4.8 -5.2 -5.4 -5.3 -4.9 -4.7 -4.8 -4.8 -4.8 -4.0 -3.3 -2.7
6.5 6.5 6.5 6.4 6.5 6.5 6.5 6.5 6.5 6.5 6.5 6.5 6.5 6.5 6.5 6.5 6.5 6.5 6.5 6.2 6.0 4.8 4.8 1.8 0.8 1.1 -1.0 -2.6 -3.5 -3.6 -3.8 -4.6 -5.3 -5.4 -5.5 -5.0 -4.7 -4.7 -4.8 -4.8 -4.7 -4.4 -2.8 -3.4
6.5 6.5 6.5 6.5 6.5 6.5 6.5 6.5 6.5 6.5 6.5 6.5 6.5 6.5 6.5 6.5 6.3 5.1 4.9 5.3 5.5 5.2 4.9 1.6 1.6 0.2 -0.6 -1.8 -2.8 -2.4 -3.5 -4.5 -5.1 -5.1 -5.4 -5.1 -4.5 -4.9 -4.8 -4.5 -4.5 -4.0 -3.7 -3.3
6.5 6.5 6.5 6.5 6.5 6.5 6.5 6.5 6.5 6.5 6.5 6.5 6.5 6.5 6.5 6.5 6.5 6.4 5.8 4.6 4.9 5.0 4.9 2.6 1.5 0.0 0.1 -1.3 -2.1 -3.0 -3.4 -3.9 -4.6 -5.0 -5.1 -4.7 -4.3 -4.3 -4.2 -4.1 -4.0 -3.7 -3.5 -1.8
6.5 6.5 6.5 6.5 6.5 6.5 6.5 6.5 6.5 6.5 6.5 6.5 6.5 6.5 6.5 6.5 6.5 6.5 6.5 5.9 5.7 5.7 5.3 2.7 0.7 0.2 0.3 -1.0 -2.0 -2.9 -2.9 -3.4 -4.5 -4.8 -4.7 -3.8 -3.9 -3.9 -4.0 -4.1 -3.9 -3.6 -3.5 -3.1
6.5 6.5 6.5 6.5 6.5 6.5 6.5 6.5 6.5 6.5 6.5 6.5 6.5 6.5 6.5 6.5 6.5 6.5 6.5 5.8 5.2 5.0 4.0 1.0 0.4 -0.0 -1.6 -2.4 -2.5 -3.2 -3.9 -3.8 -4.2 -4.2 -3.7 -3.3 -3.5 -3.5 -4.0 -3.9 -3.6 -4.0 -3.4 -2.7
6.5 6.5 6.5 6.5 6.5 6.5 6.5 6.5 6.5 6.5 6.5 6.5 6.5 6.5 6.5 6.5 6.5 6.2 6.1 6.0 4.7 4.5 2.9 -0.3 -2.6 -3.3 -3.3 -3.6 -3.9 -4.1 -3.2 -3.4 -3.8 -3.7 -2.9 -2.7 -3.4 -3.6 -3.8 -3.9 -3.7 -3.7 -3.4 -2.2
6.5 6.5 6.5 6.5 6.5 6.5 6.5 6.5 6.5 6.5 6.5 6.5 6.5 6.5 6.5 6.5 6.5 6.3 5.5 5.4 5.4 2.5 -0.7 -2.3 -3.3 -3.0 -3.2 -3.7 -3.6 -3.3 -3.6 -3.9 -3.6 -2.9 -2.7 -3.0 -3.8 -3.9 -5.1 -5.0 -4.2 -3.3 -2.9 -2.1
6.1 6.5 6.5 6.5 6.5 6.5 6.5 6.5 6.5 6.5 6.5 6.5 6.5 6.5 6.5 6.5 6.5 6.4 5.5 4.5 3.7 2.0 -0.1 -2.2 -2.5 -2.7 -3.0 -3.2 -4.0 -3.9 -3.5 -4.3 -4.2 -3.7 -3.9 -4.2 -5.2 -5.6 -6.4 -4.7 -3.5 -2.0 -1.2 -1.4
6.5 6.5 6.5 6.5 6.5 6.5 6.5 6.5 6.5 6.5 6.5 6.5 6.5 6.5 6.5 6.5 6.5 6.2 5.3 3.1 2.7 1.6 -0.3 -1.6 -2.7 -3.1 -3.2 -3.2 -3.2 -3.3 -3.5 -4.9 -5.1 -4.9 -5.1 -5.9 -6.6 -4.7 -3.2 -2.5 -1.9 -1.5 -1.6 -1.4
6.5 6.5 6.5 6.5 6.5 6.5 6.5 6.5 6.5 6.5 6.5 6.5 6.5 6.5 6.5 6.2 5.4 5.5 4.2 3.2 3.5 2.3 0.6 -1.4 -2.3 -3.0 -2.8 -2.3 -3.7 -2.4 -3.1 -4.8 -4.8 -5.9 -5.7 -5.6 -4.6 -4.8 -3.6 -2.3 -2.2 -2.4 -1.7 -2.2
6.5 6.5 6.5 6.5 6.5 6.5 6.5 6.5 6.5 6.5 6.5 6.5 6.5 6.5 6.5 6.5 6.5 5.5 3.9 3.2 2.6 1.4 -0.3 -2.1 -3.2 -4.1 -2.1 -2.5 -2.9 -3.3 -3.6 -3.8 -4.0 -5.2 -7.4 -5.4 -5.0 -5.9 -5.6 -2.5 -3.2 -3.8 -3.9 -2.9
6.5 6.5 6.5 6.5 6.5 6.5 6.5 6.5 6.5 6.5 6.5 6.5 6.5 6.5 6.5 6.1 4.6 3.5 2.6 1.7 0.7 -0.2 -0.9 -1.9 -2.5 -2.3 -2.3 -3.1 -2.6 -3.1 -3.5 -3.3 -2.6 -2.5 -3.8 -5.7 -4.8 -5.5 -6.5 -5.4 -5.3 -5.4 -4.3 -3.9
6.5 6.5 6.5 6.5 6.5 6.5 6.5 6.5 6.5 6.5 6.5 6.5 6.5 6.5 6.2 4.7 4.6 4.8 0.9 0.9 1.0 -1.5 -1.8 -2.9 -3.0 -3.7 -4.7 -4.2 -3.6 -3.2 -3.3 -2.7 -1.9 -1.7 -1.6 -1.8 -3.2 -3.7 -3.8 -3.2 -3.4 -4.1 -2.8 -3.0
6.5 6.5 6.5 6.5 6.5 6.5 6.5 6.5 6.1 6.5 6.5 6.5 6.4 6.5 6.5 5.3 6.5 6.5 -0.1 -0.4 -1.4 -3.5 -4.3 -4.9 -5.4 -5.1 -5.0 -5.0 -3.4 -3.4 -3.6 -2.7 -2.1 -1.1 -0.6 -0.2 -0.0 0.3 -0.3 -0.5 -1.2 -2.4 -1.5 -1.6
6.5 6.5 6.5 6.5 6.5 6.5 6.5 6.5 5.5 6.5 6.5 5.9 5.4 5.5 5.5 6.5 4.9 1.3 -1.0 -0.8 -2.7 -5.7 -5.4 -5.0 -4.8 -5.3 -5.5 -5.1 -4.0 -4.3 -4.0 -3.4 -2.6 -0.5 0.4 0.8 1.3 1.6 1.8 2.0 2.3 2.0 2.1 2.1
6.5 6.5 6.5 6.5 6.5 6.5 6.1 6.3 6.5 6.4 4.8 5.5 4.1 2.5 2.2 0.2 -3.0 -1.8 -1.8 -3.0 -3.8 -5.0 -5.3 -5.8 -5.2 -5.6 -5.5 -4.9 -4.1 -4.7 -4.0 -4.3 -2.4 -1.5 -0.9 -0.0 0.6 2.3 2.7 2.6 2.9 3.1 3.0 2.9
6.5 6.5 6.5 6.5 6.5 6.4 5.3 5.7 3.9 3.5 3.7 4.0 3.5 1.4 0.7 -1.1 -1.5 -0.7 -1.4 -2.5 -3.6 -5.2 -5.9 -7.0 -5.6 -6.5 -5.8 -4.5 -3.6 -3.6 -4.4 -2.8 -2.2 -1.6 -1.1 -0.4 0.3 0.7 1.8 2.6 3.6 3.5 3.3 2.6
6.5 6.5 6.5 6.5 6.5 6.5 5.2 5.0 4.6 3.8 3.3 2.9 1.3 -1.6 -0.8 0.2 -1.4 -2.1 -2.2 -2.9 -3.9 -5.2 -5.5 -6.0 -5.8 -5.5 -6.5 -5.4 -3.0 -3.2 -3.3 -2.1 -1.3 -1.2 -1.3 -1.6 -1.3 -2.3 -1.9 1.8 4.6 4.4 3.5 2.5
6.5 6.5 6.5 6.5 6.5 6.3 5.8 4.4 4.2 4.3 3.3 2.4 0.6 0.1 1.2 -0.1 -1.4 -1.9 -2.4 -2.8 -3.6 -4.4 -4.4 -4.0 -3.6 -3.3 -3.7 -4.1 -4.4 -3.4 -2.0 -0.8 0.0 0.0 -0.1 1.0 1.3 0.5 -0.6 0.0 1.9 4.1 1.0 3.8
6.4 6.5 6.5 6.5 6.0 5.6 5.2 3.1 3.5 2.8 2.6 1.4 1.2 1.0 0.8 0.3 -0.5 -1.6 -2.1 -2.8 -3.3 -3.4 -3.8 -3.7 -2.8 -1.9 -3.4 -2.6 -2.5 -1.8 -0.6 0.6 0.7 0.9 1.7 1.8 1.0 1.3 2.0 2.1 2.3 4.4 4.4 5.2
Wind_Speed
3 4 10 19 8 5 2 3 6 4 3 0 7 9 10 16 10 10 11 13 13 12 8 8 8 7 7 7 7 6 7 5 3 2 2 1 3 3 4 10 12 11 12 12
1 11 17 9 8 8 8 6 9 8 9 7 9 10 4 17 21 20 21 17 15 10 10 9 8 7 7 7 7 6 6 6 3 3 2 3 2 3 4 7 9 10 11 10
11 6 14 10 9 11 11 11 9 12 6 5 1 5 4 9 6 8 8 10 11 17 17 14 12 9 8 8 8 7 6 6 4 5 3 3 4 4 3 2 3 8 11 12
12 13 12 11 14 11 14 8 12 9 3 5 6 7 6 7 18 13 14 15 16 17 16 14 14 10 10 8 7 7 7 6 6 5 5 5 3 2 1 2 2 6 11 11
10 7 13 20 13 14 7 8 11 11 6 2 4 4 6 6 9 17 17 18 20 20 20 18 17 13 8 8 8 7 7 7 6 6 5 5 5 2 1 2 5 4 7 11
18 4 7 6 13 18 6 2 0 2 3 9 8 6 9 9 10 9 20 21 20 20 19 17 13 11 8 7 7 7 8 6 6 5 6 7 6 4 3 3 3 3 4 6
11 16 5 5 4 4 6 6 3 3 3 9 11 9 19 2 6 7 18 20 18 19 20 17 18 14 11 10 8 7 8 7 6 6 7 6 6 4 4 3 3 5 5 3
13 12 17 7 12 7 8 10 5 7 5 3 5 9 6 1 3 5 6 13 14 18 17 19 19 15 14 12 10 8 8 7 6 6 7 5 5 3 3 3 3 3 3 4
9 11 1 7 13 18 6 10 7 2 2 1 5 6 2 2 5 6 5 11 15 17 17 18 16 15 14 12 11 9 9 7 6 6 6 5 4 4 3 4 3 3 4 5
4 4 3 4 3 10 16 8 3 3 6 7 4 6 6 3 6 3 5 8 10 12 15 15 14 14 12 11 8 7 7 8 6 6 6 4 4 4 4 3 4 4 4 6
12 5 2 3 5 8 2 11 2 3 4 4 1 6 6 8 8 10 8 9 12 14 15 14 13 12 11 11 10 8 8 8 7 6 5 5 4 4 4 4 3 3 4 6
3 3 4 4 3 4 14 8 6 3 5 2 1 6 4 7 7 7 9 11 12 13 11 10 10 11 11 10 9 8 8 7 7 7 6 5 4 4 3 3 3 5 4 6
2 3 1 2 6 4 5 5 7 5 3 6 5 5 4 4 3 3 7 7 9 8 10 10 11 11 11 10 8 8 6 7 7 7 6 5 4 4 3 4 4 4 2 3
7 3 2 2 2 1 3 6 6 7 3 5 6 5 4 4 5 4 7 7 9 10 11 9 9 9 9 9 9 7 6 6 6 7 6 6 5 5 3 3 4 3 4 4
4 5 2 5 10 5 4 5 6 10 9 6 4 10 12 6 11 11 4 6 7 8 10 12 12 11 12 11 9 8 7 6 6 7 6 6 4 5 4 4 4 5 6 5
7 4 5 10 16 15 9 9 4 6 5 8 11 17 6 5 6 7 8 10 10 11 13 12 12 13 15 14 12 12 10 8 7 6 6 5 5 5 4 4 5 6 6 5
2 3 3 4 8 7 5 16 14 5 6 8 11 12 5 5 12 13 15 14 14 14 15 16 17 15 14 14 14 12 11 10 9 7 5 6 6 5 4 4 5 6 5 3
5 2 2 2 4 6 5 3 8 13 11 12 15 12 7 10 9 6 5 11 11 7 9 10 11 12 12 13 12 12 11 10 9 8 8 6 6 6 4 5 5 4 3 3
10 3 3 3 4 6 6 5 7 7 9 17 11 7 7 2 3 4 5 5 6 8 7 8 9 11 12 13 13 13 11 10 10 10 9 10 8 7 5 5 5 3 4 3
10 4 8 3 5 5 6 5 4 6 10 8 12 14 8 7 4 5 5 3 5 7 7 11 12 12 13 12 14 13 12 11 11 11 10 10 10 9 8 6 5 2 2 3
5 4 14 11 8 6 7 3 5 6 8 7 5 5 8 6 7 2 8 5 4 4 8 11 11 12 12 13 14 12 11 11 9 10 10 10 10 10 9 8 5 5 5 4
10 6 6 6 7 11 7 4 12 8 3 2 4 6 9 4 2 4 5 7 7 9 9 7 10 10 11 12 12 11 11 8 9 9 8 8 8 7 8 10 8 7 6 5
3 4 1 7 6 4 6 5 5 3 4 4 4 5 8 7 5 7 7 8 6 8 8 4 9 10 8 10 11 12 8 11 10 9 8 7 6 5 6 8 8 7 6 4
4 3 4 4 7 6 6 3 3 4 6 4 4 6 10 8 10 7 8 7 6 6 7 6 10 9 8 6 8 5 11 11 11 10 8 6 6 4 3 3 5 6 6 4
5 8 3 6 6 4 3 6 5 4 4 4 5 5 9 9 8 7 7 7 6 6 6 7 9 9 9 8 7 8 10 12 11 9 8 8 6 5 4 3 3 5 2 6
4 6 5 4 7 6 5 6 6 7 7 8 7 6 4 6 10 7 6 6 6 7 7 7 7 8 9 9 9 9 10 12 12 10 8 7 6 5 5 5 4 6 9 10
Wind_Direction
190 162 206 217 207 261 279 222 257 259 237 244 234 238 198 189 187 171 183 180 178 176 160 152 153 147 136 141 132 133 116 81 105 111 139 95 72 44 40 29 16 10 4 3
152 227 227 210 184 217 231 239 258 287 267 177 253 247 198 178 205 191 187 187 179 167 157 160 158 158 169 157 143 128 112 109 104 121 107 103 119 81 69 18 11 10 4 2
210 217 216 215 200 210 232 231 248 247 315 213 222 277 192 213 207 183 193 185 182 178 171 172 172 178 156 164 164 145 134 125 106 95 109 91 70 56 19 342 354 353 353 357
240 219 225 208 221 183 232 197 234 253 249 250 166 270 223 203 204 195 194 184 185 184 179 174 174 179 172 176 156 138 138 134 100 88 82 84 108 112 351 324 324 343 352 352
224 182 217 226 214 205 213 189 207 230 220 266 219 279 247 170 213 206 201 198 194 187 177 176 179 176 172 155 156 148 135 104 96 96 110 113 100 96 1 355 0 340 339 360
241 216 189 216 227 223 152 131 166 71 141 249 190 206 236 199 201 205 204 206 192 182 179 175 164 157 153 147 146 148 131 119 125 121 112 100 104 92 45 13 5 334 354 349
233 235 211 190 157 151 161 132 236 240 202 245 180 207 246 131 207 208 196 204 188 179 174 163 163 168 162 162 160 150 141 139 136 123 97 92 96 104 76 33 7 354 354 356
219 236 214 190 208 191 194 195 169 210 216 242 171 237 244 226 307 274 215 198 169 175 172 169 168 168 166 166 165 155 148 139 140 109 97 98 105 104 82 54 31 7 357 347
198 232 193 208 205 202 193 214 200 92 98 331 227 289 266 343 332 357 138 151 169 173 172 167 163 164 165 166 169 158 145 144 123 121 116 105 115 100 83 58 41 15 5 358
244 258 220 148 52 222 204 161 151 143 196 225 252 270 239 243 229 207 170 160 162 165 165 160 165 162 162 159 147 140 143 140 138 129 111 124 117 106 93 78 48 34 10 3
218 188 287 95 204 179 236 211 105 147 187 198 310 257 219 232 209 197 182 171 168 170 173 165 159 159 150 140 146 145 134 144 135 120 120 135 128 108 82 73 54 32 11 9
235 137 210 252 307 191 206 235 138 189 178 221 120 270 355 286 232 171 178 178 180 176 163 155 146 141 143 143 144 148 150 144 133 127 134 130 122 109 95 85 65 52 20 19
329 184 279 320 345 354 248 229 159 148 140 184 163 254 328 19 94 166 181 179 168 141 135 139 146 155 151 148 150 150 151 137 136 138 135 127 123 125 118 78 56 49 13 20
69 305 151 268 2 73 186 253 272 215 187 145 218 290 300 351 307 183 181 171 173 167 161 155 152 154 150 154 152 152 146 141 137 137 135 137 147 140 110 88 72 56 40 37
143 233 174 283 304 295 242 226 186 198 215 198 210 223 238 212 227 225 158 134 145 167 170 175 169 167 164 157 157 154 147 148 144 135 137 157 148 130 116 98 83 78 57 40
167 240 225 247 241 249 282 269 207 228 208 232 253 264 238 264 154 154 179 171 187 196 202 185 178 173 174 170 161 163 161 158 148 144 152 147 125 112 110 100 89 75 68 43
285 174 182 248 221 197 253 237 217 205 199 194 219 236 214 191 190 193 196 183 195 201 194 189 187 179 174 170 162 162 158 152 153 150 150 138 124 113 106 97 91 82 64 36
179 210 235 200 140 226 235 213 197 213 238 220 235 236 206 221 209 223 200 196 202 169 163 166 169 168 165 154 153 141 147 153 154 154 155 143 134 127 118 105 94 77 71 62
217 186 246 244 217 313 282 177 166 172 252 225 224 221 216 111 58 291 229 198 199 168 169 164 150 150 148 150 146 143 149 152 157 162 161 162 153 144 144 131 123 99 94 58
200 204 211 155 255 229 277 233 137 110 262 170 198 226 172 132 172 236 197 156 134 131 132 135 134 139 144 149 147 147 156 162 169 166 168 162 161 162 159 151 145 125 119 114
183 203 222 225 240 265 235 181 126 138 246 216 180 173 150 183 202 181 133 112 112 107 125 132 143 150 151 149 148 151 156 175 163 158 158 161 167 165 164 158 151 145 134 117
186 194 210 217 235 256 177 102 180 211 187 206 177 182 186 151 113 136 117 133 139 137 138 139 136 140 147 151 148 153 173 153 149 145 148 157 161 165 160 162 163 166 150 146
239 224 282 206 208 199 222 192 223 188 177 206 179 175 152 143 180 165 151 155 152 152 142 131 139 135 147 158 158 159 163 152 151 149 154 156 149 144 150 161 167 173 163 150
239 175 211 216 229 230 214 230 241 208 218 218 213 163 154 164 166 163 157 159 153 153 149 138 136 149 159 160 160 146 151 151 151 154 153 147 145 140 132 139 172 168 167 161
200 149 138 290 303 297 247 211 202 190 182 147 136 170 166 147 173 160 166 162 158 150 144 158 160 162 165 156 140 143 148 151 155 152 155 158 158 150 136 119 165 165 169 165
188 172 184 206 224 206 234 193 181 159 179 177 150 141 171 168 173 161 174 154 151 157 153 149 146 149 152 156 148 150 157 159 153 152 158 160 150 150 148 137 117 135 151 158